Tracking 18795 objects as of 23-August-2017
HD Live streaming from Space Station
objects crossing your sky now

COSMOS 2251 DEB

Track COSMOS 2251 DEB now!
10-day predictions


NORAD ID: 33899
Int'l Code: 1993-036DC
Perigee: 691.8 km
Apogee: 800.9 km
Inclination: 74.1 °
Period: 99.6 minutes
Semi major axis: 7117 km
RCS: 0.032 m2 (small)
Launch date: June 16, 1993
Source: Commonwealth of Independent States (former USSR) (CIS)
Launch site: PLESETSK MISSILE AND SPACE COMPLEX (PKMTR)

Note: This is SATELLITE DEBRIS
Your satellite tracking list
Your tracking list is empty





NASA's NSSDC Master Catalog

Two Line Element Set (TLE):
1 33899U 93036DC  17234.84728529 +.00000316 +00000-0 +93477-4 0  9999
2 33899 074.0594 010.3798 0076612 125.6818 028.1791 14.45850453448849
Source of the keplerian elements: AFSPC